This demonstration page uses our WeatherBlox Daily Observations layout. Learn more.

Left ArrowRight Arrow

39.01783, -85.05884

Hourly Observations for September 10, 2017

Temp ( °F °C ) Dew Point ( °F °C ) Humidity (%) Winds ( mph kmh ) Pressure ( in mb ) Visibility ( mi km ) Precip ( " mm )
12:52 am 00:52 Clear 59 15 48 8.9 67 67 ENE 7 11 30.33 1027 10 16 0.00 0.00
1:52 am 01:52 Clear 58 14.4 48 8.9 70 70 NE 9 15 30.33 1027 10 16 0.00 0.00
2:52 am 02:52 Clear 56 13.3 49 9.4 77 77 ENE 12 19 30.33 1027 10 16 0.00 0.00
3:52 am 03:52 Clear 55 12.8 50 10 83 83 ENE 12 19 30.33 1027 10 16 0.00 0.00
4:52 am 04:52 Clear 54 12.2 50 10 87 87 ENE 10 17 30.33 1027 10 16 0.00 0.00
5:52 am 05:52 Clear 54 12.2 50 10 87 87 ENE 7 11 30.34 1027 10 16 0.00 0.00
6:52 am 06:52 Clear 53 11.7 49 9.4 86 86 ENE 7 11 30.36 1028 10 16 0.00 0.00
7:52 am 07:52 Sunny 53 11.7 50 10 89 89 NNE 7 11 30.38 1029 10 16 0.00 0.00
8:52 am 08:52 Sunny 56 13.3 50 10 81 81 ENE 10 17 30.39 1029 10 16 0.00 0.00
9:52 am 09:52 Sunny 59 15 50 10 72 72 ENE 9 15 30.40 1030 10 16 0.00 0.00
10:52 am 10:52 Sunny 64 17.8 51 10.6 63 63 ENE 8 13 30.40 1030 10 16 0.00 0.00
11:52 am 11:52 Sunny 67 19.4 51 10.6 57 57 ENE 10 17 30.38 1029 10 16 0.00 0.00
12:52 pm 12:52 Sunny 70 21.1 49 9.4 47 47 ENE 12 19 30.37 1029 10 16 0.00 0.00
1:52 pm 13:52 Sunny 71 21.7 48 8.9 44 44 E 14 22 30.36 1028 10 16 0.00 0.00
2:52 pm 14:52 Sunny 72 22.2 47 8.3 41 41 NE 13 20 30.34 1027 10 16 0.00 0.00
3:52 pm 15:52 Sunny 73 22.8 46 7.8 38 38 ENE 13 20 30.32 1027 10 16 0.00 0.00
4:52 pm 16:52 Sunny 72 22.2 46 7.8 40 40 NE 8 13 30.30 1026 10 16 0.00 0.00
5:52 pm 17:52 Sunny 72 22.2 47 8.3 41 41 ENE 12 19 30.30 1026 10 16 0.00 0.00
6:52 pm 18:52 Sunny 70 21.1 47 8.3 44 44 NE 14 22 30.29 1026 10 16 0.00 0.00
7:52 pm 19:52 Mostly Sunny 68 20 46 7.8 45 45 ENE 12 19 30.29 1026 10 16 0.00 0.00
8:52 pm 20:52 Mostly Clear 65 18.3 46 7.8 51 51 ENE 12 19 30.30 1026 10 16 0.00 0.00
9:52 pm 21:52 Clear 64 17.8 47 8.3 54 54 E 12 19 30.31 1026 10 16 0.00 0.00
10:52 pm 22:52 Clear 61 16.1 49 9.4 65 65 E 12 19 30.29 1026 10 16 0.00 0.00
11:52 pm 23:52 Mostly Clear 60 15.6 50 10 70 70 E 12 19 30.29 1026 10 16 0.00 0.00

Powered by AerisWeather